| time (UTC) | temp C | wind direction | speed KPH | gust KPH | rain 1hr cm | rain 24hr cm | rain mn cm | humidity % | barometer mb |
| 20260507050022 | 12 | 0.0 | 0.0 | 0.00 | 0.00 | 0.00 | 80 | 1019.9 | |
| 20260507043022 | 12 | 0.0 | 0.0 | 0.00 | 0.00 | 0.00 | 80 | 1019.9 | |
| 20260507040022 | 12 | 0.0 | 0.0 | 0.00 | 0.00 | 0.00 | 80 | 1019.6 | |
| 20260507033022 | 13 | 0.0 | 0.0 | 0.00 | 0.00 | 0.00 | 80 | 1019.5 | |
| 20260507030017 | 13 | 0.0 | 0.0 | 0.00 | 0.00 | 0.00 | 80 | 1019.3 | |
| 20260507023022 | 13 | 0.0 | 0.0 | 0.00 | 0.00 | 0.00 | 79 | 1019.0 | |
| 20260507020022 | 13 | 0.0 | 0.0 | 0.00 | 0.00 | 0.00 | 79 | 1019.1 | |
| 20260507013022 | 14 | 0.0 | 1.6 | 0.00 | 0.00 | 0.00 | 78 | 1019.2 | |
| 20260507010037 | 14 | 0.0 | 0.0 | 0.00 | 0.00 | 0.00 | 77 | 1019.2 | |
| 20260507003022 | 14 | 0.0 | 4.8 | 0.00 | 0.00 | 0.00 | 79 | 1019.2 | |
| 20260507000017 | 15 | 0.0 | 1.6 | 0.00 | 0.00 | 0.00 | 78 | 1019.3 | |
| 20260506233022 | 14 | 0.0 | 1.6 | 0.00 | 0.00 | 0.00 | 81 | 1019.5 | |
| 20260506230017 | 14 | 0.0 | 4.8 | 0.00 | 0.00 | 0.00 | 79 | 1019.4 | |
| 20260506223022 | 14 | 0.0 | 0.0 | 0.00 | 0.00 | 0.00 | 79 | 1019.6 | |
| 20260506220022 | 14 | 0.0 | 6.4 | 0.00 | 0.00 | 0.00 | 80 | 1019.8 | |
| 20260506213022 | 14 | 0.0 | 1.6 | 0.00 | 0.00 | 0.00 | 79 | 1019.7 | |
| 20260506210022 | 14 | 0.0 | 9.7 | 0.00 | 0.00 | 0.00 | 80 | 1019.7 | |
| 20260506203017 | 13 | 0.0 | 1.6 | 0.00 | 0.00 | 0.00 | 81 | 1019.6 | |
| 20260506200022 | 13 | 0.0 | 0.0 | 0.00 | 0.00 | 0.00 | 80 | 1019.6 | |
| 20260506193017 | 13 | 0.0 | 0.0 | 0.00 | 0.00 | 0.00 | 81 | 1019.5 | |
| 20260506190022 | 13 | 0.0 | 6.4 | 0.00 | 0.00 | 0.00 | 81 | 1019.4 | |
| 20260506183022 | 13 | 0.0 | 3.2 | 0.00 | 0.00 | 0.00 | 81 | 1019.5 | |
| 20260506180021 | 13 | 0.0 | 8.0 | 0.00 | 0.00 | 0.00 | 81 | 1019.0 | |
| 20260506173017 | 13 | 0.0 | 3.2 | 0.00 | 0.00 | 0.00 | 81 | 1018.9 | |
| 20260506170020 | 12 | 0.0 | 1.6 | 0.00 | 0.00 | 0.00 | 82 | 1019.1 | |
| 20260506163022 | 12 | 0.0 | 4.8 | 0.00 | 0.00 | 0.00 | 83 | 1019.0 | |
| 20260506160016 | 12 | 0.0 | 1.6 | 0.00 | 0.00 | 0.00 | 85 | 1018.6 | |
| 20260506153042 | 11 | 0.0 | 0.0 | 0.00 | 0.00 | 0.00 | 88 | 1018.4 | |
| 20260506150016 | 11 | 0.0 | 1.6 | 0.00 | 0.00 | 0.00 | 89 | 1018.7 | |
| 20260506143101 | 11 | 0.0 | 0.0 | 0.00 | 0.00 | 0.00 | 89 | 1018.5 | |
| 20260506140016 | 11 | 0.0 | 0.0 | 0.00 | 0.00 | 0.00 | 90 | 1018.3 | |
| 20260506133022 | 11 | 0.0 | 0.0 | 0.00 | 0.00 | 0.00 | 89 | 1018.2 | |
| 20260506130021 | 11 | 0.0 | 4.8 | 0.00 | 0.00 | 0.00 | 89 | 1018.1 | |
| 20260506123043 | 11 | 0.0 | 0.0 | 0.00 | 0.00 | 0.00 | 90 | 1017.9 | |
| 20260506120016 | 11 | 0.0 | 0.0 | 0.00 | 0.00 | 0.00 | 90 | 1017.6 | |
| 20260506113020 | 11 | 0.0 | 0.0 | 0.00 | 0.00 | 0.00 | 90 | 1017.3 | |
| 20260506110036 | 11 | 0.0 | 0.0 | 0.00 | 0.00 | 0.00 | 91 | 1017.2 | |
| 20260506103041 | 11 | 0.0 | 0.0 | 0.00 | 0.00 | 0.00 | 91 | 1017.0 | |
| 20260506100020 | 10 | 0.0 | 0.0 | 0.00 | 0.00 | 0.00 | 91 | 1016.7 | |
| 20260506093036 | 10 | 0.0 | 0.0 | 0.00 | 0.00 | 0.00 | 91 | 1016.6 | |
| 20260506090018 | 10 | 0.0 | 0.0 | 0.00 | 0.00 | 0.00 | 91 | 1016.5 | |
| 20260506083020 | 10 | 0.0 | 0.0 | 0.00 | 0.00 | 0.00 | 91 | 1016.2 | |
| 20260506073016 | 10 | 0.0 | 0.0 | 0.00 | 0.00 | 0.00 | 89 | 1015.8 |